Volver al catálogo

ICEYE-X38

ActivoCienciaSSO
NORAD 59100·PAYLOAD·🇫🇮 Finland

Lanzado Mar 4, 2024 desde Vandenberg Space Force Base

Loading…

Próximos Pases (próximas 24 horas)

TLE

ActualizadoSource: Space-Track

Época: Sep 14, 2026, 20:25 UTC

1 59100U 24043C   26257.85070440  .00003472  00000-0  19768-3 0  9998
2 59100  97.8531  44.1769 0003658 121.8712 238.2874 15.13537230125232

Sigue ICEYE-X38 en tiempo real con AllMySat

Download on the App Store